Back to catalog

COSMOS 1275 DEB

AlivePO
NORAD 42229·DEBRIS·🇷🇺 Russia

Launched Jun 4, 1981 from Plesetsk Cosmodrome

Loading…

Next Passes (next 24 hours)

TLE

FreshSource: Space-Track

Epoch: Sep 11, 2026, 21:40 UTC

1 42229U 81053UV  26254.90286325  .00000420  00000-0  56241-3 0  9997
2 42229  83.0168 309.7714 0218294  23.9983 337.1148 13.48728574628673

Track COSMOS 1275 DEB in real time with AllMySat

Download on the App Store